軌道要素
Epoch 2014 Mar. 4.0 TT = JDT 2456720.5
T 2014 Mar. 3.22934 TT MPC
q 1.2999042 (2000.0) P Q
n 0.17182101 Peri. 235.37370 -0.95976483 +0.16124129
a 3.2044379 Node 312.69072 -0.00064881 -0.81997864
e 0.5943425 Incl. 18.22654 -0.28080429 -0.54921423
P 5.74
From 202 observations 2008 Jan. 13-2014 July 3, mean residual 0".5.
|